Hourly Data Report for February 13, 2005

TORONTO CITY
ONTARIO

43°40'00.000" N
79°24'00.000" W
112.50 m
6158355
71508
XTO

Download Data

Hourly Data (February 2005)
Hourly Data Report for February 13, 2005
TIME
LST
Temp Definition
°C
Dew Point Definition
°C
Rel Hum Definition
%
Precip. Amount Definition
mm

Wind Dir Definition
10's deg

Wind Spd Definition
km/h
Visibility Definition
km
Stn Press Definition
kPa
Hmdx Definition


Wind Chill Definition


Weather Definition


00:00 -3.6 -12.5 50   LegendMM LegendMM   100.22     LegendNANA
01:00 -4.4 -12.1 55   LegendMM LegendMM   100.32     LegendNANA
02:00 -5.3 -13.2 54   LegendMM LegendMM   100.37     LegendNANA
03:00 -6.3 -13.0 59   LegendMM LegendMM   100.40     LegendNANA
04:00 -7.2 -13.3 62   LegendMM LegendMM   100.57     LegendNANA
05:00 -7.8 -13.8 62   LegendMM LegendMM   100.69     LegendNANA
06:00 -8.3 -14.8 59   LegendMM LegendMM   100.82     LegendNANA
07:00 -9.0 -14.8 63   LegendMM LegendMM   100.93     LegendNANA
08:00 -9.6 -14.9 65   LegendMM LegendMM   100.97     LegendNANA
09:00 -8.4 -14.9 59   LegendMM LegendMM   101.06     LegendNANA
10:00 -7.7 -14.6 58   LegendMM LegendMM   101.14     LegendNANA
11:00 -6.3 -14.5 52   LegendMM LegendMM   101.19     LegendNANA
12:00 -5.7 -12.5 59   LegendMM LegendMM   101.18     LegendNANA
13:00 -5.2 -11.3 62   LegendMM LegendMM   101.13     LegendNANA
14:00 -5.4 -10.6 67   LegendMM LegendMM   101.14     LegendNANA
15:00 -5.5 -9.3 75   LegendMM LegendMM   101.14     LegendNANA
16:00 -4.9 -8.4 76   LegendMM LegendMM   101.17     LegendNANA
17:00 -4.7 -8.2 76   LegendMM LegendMM   101.18     LegendNANA
18:00 -4.7 -7.9 78   LegendMM LegendMM   101.17     LegendNANA
19:00 -4.3 -7.6 78   LegendMM LegendMM   101.14     LegendNANA
20:00 -3.6 -7.5 74   LegendMM LegendMM   101.10     LegendNANA
21:00 -2.9 -6.9 74   LegendMM LegendMM   101.05     LegendNANA
22:00 -2.3 -5.7 77   LegendMM LegendMM   100.97     LegendNANA
23:00 -2.1 -5.2 79   LegendMM LegendMM   100.91     LegendNANA

Notes on Data Quality.

Legend

  • E = Estimated
  • M = Missing
  • NA = Not Available*
  • [empty] = Indicates an unobserved value
Date modified: